Regional Weather Roundup
Issued by NWS Kansas City/Pleasant Hill, MO

Home | Current Version | Previous Version | Text Only | Print | Product List | Glossary On
Versions: 1 2 3 4 5 6 7 8 9 10 11 12 13 14 15 16 17 18 19 20 21 22 23 24 25 26 27 28
000
ASUS43 KEAX 261310
RWREAX

WEATHER ROUNDUP FOR EASTERN KANSAS AND NORTHWEST MISSOURI
NATIONAL WEATHER SERVICE KANSAS CITY/PLEASANT HILL MO
800 AM CDT MON JUN 26 2017

KSZ040-057-103>105-MOZ028-029-037-043-261400-
...KANSAS CITY METROPOLITAN AREA...

CITY           SKY/WX    TMP DP  RH WIND       PRES   REMARKS
K.C. INTL      PTSUNNY   60  56  86 N8        30.22R
K.C. DOWNTOWN  MOSUNNY   65  55  70 SW3       30.19R
LEES SUMMIT    SUNNY     64  51  62 S12       30.19S
OLATHE - IXD   SUNNY     60  56  86 S6        30.21S
OLATHE - OJC   SUNNY     60  57  89 S5        30.21R
LAWRENCE       SUNNY     59  58  96 CALM      30.20S

$$

MOZ001>008-011>017-020>025-030>033-038>040-044>046-053-054-261400-
...NORTHERN AND CENTRAL MISSOURI...

CITY           SKY/WX    TMP DP  RH WIND       PRES   REMARKS
ST. JOSEPH     CLOUDY    58  56  93 CALM      30.22S
MOSBY          CLOUDY    55  54  94 CALM      30.21R
WARRENSBURG    SUNNY     59  54  82 S5        30.20S
WHITEMAN AFB   MOSUNNY   61  60  97 S5        30.19F
CLINTON        NOT AVBL
SEDALIA        SUNNY     62  57  83 S3        30.22F
WARSAW         NOT AVBL
CHILLICOTHE      N/A     59  54  83 CALM      30.24R
KIRKSVILLE     CLOUDY    60  50  69 NE6       30.20F

$$

MOZ041-047>049-056>058-063>065-088>090-097-261400-
...EASTERN AND SOUTHERN MISSOURI...

CITY           SKY/WX    TMP DP  RH WIND       PRES   REMARKS
ST. LOUIS INTL MOSUNNY   68  51  54 W7        30.22S
SPIRIT OF STL  MOSUNNY   63  56  78 W3        30.22R
COLUMBIA       SUNNY     63  55  75 CALM      30.21F
JEFFERSON CITY SUNNY     60  53  77 S5        30.22F
ROLLA          MOSUNNY   62  53  72 S8        30.23S
OSAGE BEACH    SUNNY     62  55  77 S3        30.24F
SPRINGFIELD    CLOUDY    65  60  84 S7        30.22F
BRANSON        CLOUDY    64  55  72 E9        30.27S
JOPLIN         MOSUNNY   66  58  75 SE8       30.22F
WEST PLAINS    HVY RAIN  63  57  81 W3        30.28R

$$

IAZ060-094-KSZ022-034>040-054-083-096-NEZ052-066-093-261400-
...KANSAS...SOUTHEAST NEBRASKA AND IOWA...

CITY           SKY/WX    TMP DP  RH WIND       PRES   REMARKS
TOPEKA         MOSUNNY   63  59  87 CALM      30.19F
MANHATTAN      MOSUNNY   60  57  89 CALM      30.20S
EMPORIA        CLOUDY    66  58  75 S12       30.20S
CHANUTE          N/A    N/A N/A N/A MISG      30.21F
WICHITA        PTSUNNY   66  55  67 E7        30.22R
OMAHA          LGT RAIN  58  52  80 SE9       30.20R
LINCOLN        LGT RAIN  61  55  81 E3        30.22S
FALLS CITY     LGT RAIN  57  54  89 MISG      30.23R
LAMONI         PTSUNNY   57  51  80 N9        30.26R
DES MOINES     RAIN      56  54  93 SW8       30.20F FOG

$$





USA.gov is the U.S. government's official web portal to all federal, state and local government web resources and services.